ARIANE 5 R/B, 40665

Orbit data source: Space-Track

ARIANE 5 R/B, 40665 is space debris in HEO originally from a launch on Wed, 27 May 2015 UTC launched from the French Guiana (FRGUI). Debris objects in space refer to the collection of defunct objects orbiting the Earth. Examples of debris include non-operational satellites, rocket bodies, and fragments generated from explosions, collisions, or faulty payload assembly.

Loading next visibility...
Identifier
40665, 2015-026C
Orbit
HEO
Country
Flag of FRFR
Related business
Manufacturer
Airbus Safran
Mission
Spacecraft
Bus & Motor
ESC-A, Unknown motor
Mass
~5,000 kg wet, ~5,000 kg dry
Launch date (UTC)
2015-05-27 (11 years ago)
Launch vehicle
Unknown
Launch site
French Guiana (FRGUI)
Object type
Payload
Rocket body
Debris
Shape & HBR
Cyl + 1 Nozzle, 3.5 m
Radar Cross Section
41.627 m², Large (>1 m²)

Expand to show TLE details & history
Last TLE update: 2 days ago

TLE from 2 days ago
0 ARIANE 5 R/B
1 40665U 15026C   26170.94540000  .00009783  00000-0  97078-3 0  9994
2 40665   4.0450 329.3965 6940256 284.2337  12.9270  2.74384711100069
Epoch: 2026-06-19T22:41Z
TLE epoch observation values (Epoch: 2026-06-19T22:41:22.559Z)
Latitude
-0.00021°
Longitude
80.97066°
Altitude
3,151.213 km
Speed
8.072 km/s
True Right ascension
21h 57m 55s
True Declination
0° 00' 01"
Sunlit
Object was in daylight at epoch
Visualization orbit readout
Latitude
Unknown
Longitude
Unknown
Altitude
Unknown
Speed
Unknown
Apparent Right ascension
Unknown
Apparent Declination
Unknown
Sunlit
N/A
Visualization observer readout
Local Sidereal Time
21:35:57
Azimuth
Unknown
Elevation
Unknown
Doppler factor
Unknown
Orbital elements
Apogee altitude
30,141.378 km
Perigee altitude
218.007 km
Semi-major axis
21,557.829 km
Eccentricity
0.69403
Inclination
4.045°
RAAN
329.3965°
Arg. of periapsis
284.2337°
True anomaly
75.90912°
Mean anomaly
12.927°
Eccentric anomaly
36.68062°
Mean motion
0.6857 °/min
Orbital period
525.01 mins
BSTAR
0.00097078
Loading maneuver chart data...
Computing Atmospheric mass density...
Loading historical data...
Loading historical data...
Loading historical data...
Loading historical data...
Loading historical data...
Loading historical data...
Loading historical data...
Other satellites on launch #26 in the year 2015 (2015-05-27 UTC)

Documentation

Showing up to 5 results
|